Home   Weather   Burgdorf   Past weeks

Flag for Switzerland Past Weather in Burgdorf, Bern, Switzerland — Yesterday and Last 2 Weeks

Now
46 °F

Clear.


Feels Like: 46 °F
Forecast: 43 / 61 °F
Wind: 2 mph from East

Location: Bern / Belp

Current Time: Apr 24, 2017 at 11:08:12 pm

Latest Report: Apr 24, 2017 at 10:20 pm


Visibility: 10 mi

Pressure: 29.86 "Hg (27.97 "Hg at 539m altitude)

Humidity: 71%

Dew Point: 37 °F

Location of BurgdorfLocation

Past Weather in Burgdorf — Graph

°F

Burgdorf Temperature Yesterday

Maximum temperature yesterday: 61 °F (at 4:50 pm)
Minimum temperature yesterday: 39 °F (at 11:50 pm)
Average temperature yesterday: 51 °F

High & Low Weather Summary for the Past Weeks

 TemperatureHumidityPressure
High73 °F (Apr 10, 2:20 pm)100% (Apr 12, 1:20 am)30.45 "Hg (Apr 12, 1:20 am)
Low21 °F (Apr 21, 5:50 am)23% (Apr 21, 4:50 pm)29.86 "Hg (Apr 24, 5:50 pm)
Average47 °F67%30.16 "Hg
* Reported Apr 9 9:20 pm — Apr 24 9:50 pm, Burgdorf, Weather by CustomWeather, © 2017

Note: Actual official high and low records may vary slightly from our data, if they occured in-between our weather recording intervals... More about our weather records

Advertising

Burgdorf Weather History for the Previous 24 Hours

Scroll right to see more
 ConditionsComfort  
Time TempWeatherWind HumidityBarometerVisibility
9:50 pm
Mon, Apr 24
48 °FClear.1 mph71%29.86 "Hg10 mi
9:20 pm52 °FClear.1 mph67%29.86 "Hg10 mi
8:50 pm55 °FClear.1 mph55%29.86 "Hg10 mi
8:20 pm64 °FPassing clouds.3 mph34%29.86 "HgN/A
7:50 pm64 °FSunny.3 mph37%29.86 "Hg10 mi
7:20 pm68 °FSunny.9 mph30%29.86 "Hg10 mi
6:50 pm68 °FScattered clouds.9 mph30%29.86 "HgN/A
6:20 pm70 °FScattered clouds.9 mph27%29.86 "HgN/A
5:50 pm70 °FScattered clouds.13 mph27%29.86 "HgN/A
5:20 pm70 °FSunny.12 mph29%29.89 "Hg10 mi
4:50 pm70 °FPassing clouds.15 mph31%29.89 "HgN/A
4:20 pm68 °FSunny.13 mph28%29.92 "Hg10 mi
3:50 pm68 °FSunny.9 mph26%29.92 "Hg10 mi
3:20 pm68 °FPassing clouds.7 mph35%29.92 "HgN/A
2:50 pm66 °FSunny.15 mph40%29.95 "Hg10 mi
2:20 pm64 °FPassing clouds.8 mph40%29.98 "HgN/A
1:50 pm63 °FPassing clouds.8 mph49%29.98 "HgN/A
1:20 pm63 °FSunny.6 mph39%29.98 "Hg10 mi
12:50 pm59 °FPassing clouds.8 mph45%30.01 "HgN/A
12:20 pm57 °FPassing clouds.8 mph48%30.01 "HgN/A
11:50 am55 °FPassing clouds.9 mph47%30.04 "HgN/A
11:20 am54 °FSunny.3 mph47%30.04 "Hg10 mi
10:50 am52 °FSunny.3 mph54%30.04 "Hg10 mi
10:20 am50 °FSunny.2 mph54%30.07 "Hg10 mi
9:50 am46 °FSunny.2 mph62%30.07 "Hg10 mi
9:20 am45 °FSunny.1 mph66%30.07 "Hg10 mi
8:50 am43 °FSunny.1 mph66%30.09 "Hg10 mi
8:20 am39 °FSunny.1 mph75%30.09 "Hg10 mi
7:50 am37 °FSunny.No wind87%30.09 "Hg10 mi
7:20 am32 °FSunny.No wind93%30.07 "Hg10 mi
6:50 am28 °FSunny.1 mph100%30.07 "Hg10 mi
6:20 am30 °FClear.1 mph93%30.07 "Hg10 mi
5:50 am30 °FClear.1 mph93%30.07 "Hg10 mi
5:20 am30 °FClear.1 mph100%30.07 "Hg10 mi
4:50 am30 °FClear.No wind93%30.09 "Hg10 mi
4:20 am32 °FClear.2 mph93%30.09 "Hg10 mi
3:50 am32 °FClear.1 mph93%30.09 "Hg10 mi
3:20 am34 °FClear.1 mph93%30.09 "Hg10 mi
2:50 am36 °FClear.1 mph87%30.09 "Hg10 mi
2:20 am34 °FClear.No wind87%30.09 "Hg10 mi
1:50 am36 °FClear.1 mph93%30.09 "Hg10 mi
1:20 am36 °FClear.2 mph81%30.09 "Hg10 mi
12:50 am37 °FClear.1 mph81%30.12 "Hg10 mi
12:20 am39 °FClear.1 mph75%30.12 "Hg10 mi
11:50 pm
Sun, Apr 23
39 °FClear.1 mph81%30.12 "Hg10 mi
11:20 pm41 °FClear.1 mph76%30.12 "Hg10 mi
Weather by CustomWeather, © 2017

See weather overviewHow to use our weather pages